Hourly Data Report for April 30, 2022

MIRAMICHI RCS
NEW BRUNSWICK
Current Station Operator: ECCC - MSC

47°00'34.000" N
65°27'54.000" W
33.00 m
8100989
71744
ACQ

Download Data

Hourly Data (April 2022)
Hourly Data Report for April 30, 2022
TIME
LST
Temp Definition
°C
Dew Point Definition
°C
Rel Hum Definition
%
Precip. Amount Definition
mm

Wind Dir Definition
10's deg

Wind Spd Definition
km/h
Visibility Definition
km
Stn Press Definition
kPa
Hmdx Definition


Wind Chill Definition


Weather Definition


00:00 1.5 0.7 94 0.0 2 13   101.03     LegendNANA
01:00 1.5 0.7 95 0.0 1 12   101.01     LegendNANA
02:00 1.5 0.8 95 0.0 1 10   101.01     LegendNANA
03:00 1.4 0.8 96 0.0 1 11   101.00     LegendNANA
04:00 1.4 0.8 96 0.0 1 10   101.01     LegendNANA
05:00 1.4 0.7 95 0.0 36 10   101.03     LegendNANA
06:00 1.3 0.6 95 0.3 34 9   101.06     LegendNANA
07:00 1.8 0.8 93 0.2 35 12   101.08     LegendNANA
08:00 2.2 0.8 90 0.0 36 13   101.07     LegendNANA
09:00 3.3 1.4 87 0.0 1 14   101.09     LegendNANA
10:00 3.8 1.6 86 0.0 1 14   101.10     LegendNANA
11:00 3.9 2.4 90 0.0 36 10   101.09     LegendNANA
12:00 4.4 2.2 86 0.2 36 11   101.05     LegendNANA
13:00 4.9 2.9 87 0.2 1 12   101.05     LegendNANA
14:00 4.9 3.0 87 0.5 2 10   101.03     LegendNANA
15:00 3.1 2.0 93 1.0 7 16   101.06     LegendNANA
16:00 2.5 1.7 94 1.1 10 11   101.06     LegendNANA
17:00 2.1 1.3 94 1.0 12 3   101.08     LegendNANA
18:00 3.1 2.2 94 0.0 1 6   101.11     LegendNANA
19:00 2.8 1.9 93 0.2 1 6   101.15     LegendNANA
20:00 2.2 1.6 95 0.7 5 5   101.19     LegendNANA
21:00 1.9 1.2 95 0.3 33 5   101.20     LegendNANA
22:00 1.6 1.0 96 0.0 30 5   101.19     LegendNANA
23:00 1.8 1.1 95 0.0 2 5   101.19     LegendNANA

Notes on Data Quality.

Legend

  • E = Estimated
  • M = Missing
  • NA = Not Available*
  • [empty] = Indicates an unobserved value
Date modified: